Portada
METAR-TAF:

METAR-TAF

Aeroports :

Trieste, Itàlia

latitud: 45-39N, longitud: 013-45E, altitud: 8 m

Observació

L'informe es va fer fa 1 hora i 42 minuts, a les 05:55 UTC
Vent 10 kt del Est/Nord-Est amb ràfegues de 20 kt, variant entre Nord/Nord-Est i Est/Sud-Est
Temperatura 23°C
Humitat 78%
Pressió 1010 hPa

METAR: LIVT 200555Z AUTO 06010G20KT 030V110 //// 23/19 Q1010

Hora: 09:37 (07:37 UTC)


TAF: manca

Observacions i pronòstics meteorològics de més de 4000 aeroports (METAR i TAF).

Les estacions disponibles són els punts grocs i vermells al mapa.

Posi el ratolí al punt desitjat per veure el nom de l'estació.

Feu clic per veure les observacions i els pronòstics meteorològics.

Per canviar el mapa: feu clic els botons verds amb una creu de color negre per apropar; al botó verd amb un guió per allunyar la imatge; o en les fletxes verdes per a mapes adjacents.


METAR-TAF: